[[{"header":{"parameterUnit":"m.s-1","parameterCategory":1,"la1":30.2991,"la2":30.254,"lo1":-89.0895,"lo2":-89.0444,"dy":0.0017,"dx":0.0017,"nx":28,"ny":28,"refTime":"2023-07-18T09:00:00:Z","depth":0,"parameterNumber":2,"parameterNumberName":"U-component_of_WINDS"},"data":[0,0,0,0,0,0,0,0,0,0,0,0,0,0,0,0,0,0,0,0,0,0,0,0,0,0,0,0,0,0,0,0,0,0,0,0,0,0,0,0,0,0,0,0,0,0,0,0,0,0,0,0,0,0,0,0,0,0,0.9372,0.9373,0,0.9464,0.9465,0.9466,0.9479,0.9478,0.9478,0.9477,0.9571,0.9574,0.9577,0,0,0,0,0,0,0,0,0,0,0,0,0,0.9208,0.9211,0.9372,0.9373,0.9375,0.9464,0.9465,0.9466,0.9479,0.9478,0.9477,0.9476,0.957,0.9574,0.9578,0,0,0,0,0,0,0,0,0,0,0,0,0,0.9288,0.9212,0.9372,0.9392,0.9395,0.9463,0.9465,0.9466,0.948,0.9478,0.9477,0.9476,0.9568,0.9573,0.9578,0.9634,0,0,0.9593,0.9595,0,0,0,0,0,0,0,0,0.9283,0.9294,0.9388,0.9391,0.9394,0.9459,0.9442,0.9522,0.948,0.9447,0.9477,0.9475,0.9535,0.9542,0.9562,0.9638,0.9642,0.9594,0.9597,0.9599,0.96,0,0,0,0,0,0,0,0.9278,0.929,0.9408,0.9389,0.9393,0.9396,0.9406,0.9457,0.9497,0.945,0.9451,0.9462,0.9536,0.9557,0.9564,0.9643,0.9593,0.9598,0.9601,0.9603,0.9768,0.9769,0,0,0,0,0,0,0.9269,0.9285,0.9406,0.9411,0.9334,0.94,0.9411,0.9439,0.9496,0.9504,0.9463,0.9462,0.955,0.9559,0.9568,0.9636,0.9599,0.9603,0.9606,0.9766,0.9768,0.977,0,0,0,0,0,0,0.9265,0.9279,0.9402,0.9349,0.9364,0.9404,0.9436,0.9442,0.9463,0.9506,0.9513,0.9477,0.9549,0.9561,0.9617,0.9639,0.9605,0.961,0.9765,0.9767,0.9769,0.9772,0,0,0,0,0,0,0.926,0.9278,0.93,0.9349,0.9367,0.9449,0.9437,0.9444,0.9471,0.9471,0.9522,0.9529,0.9549,0.9609,0.9622,0.9645,0.9614,0.9763,0.9766,0.9768,0.977,0.9774,0.9778,0,0,0,0,0,0.9254,0.9297,0.9301,0.9315,0.9395,0.9451,0.9461,0.9483,0.9473,0.9495,0.9522,0.9527,0.9635,0.9615,0.9629,0.9654,0.9762,0.9765,0.9768,0.9769,0.9773,0.9777,0,0,0,0,0,0,0.925,0.9304,0.9308,0.9369,0.9405,0.9453,0.9481,0.9488,0.9528,0.9526,0.9552,0.9564,0.9618,0.9642,0.9619,0.971,0.9697,0.9703,0.9693,0.9698,0.9701,0.9694,0.9618,0,0,0,0,0,0.9256,0.9297,0.9342,0.939,0.9408,0.9442,0.9467,0.948,0.9519,0.9535,0.9566,0.9604,0.9646,0.9673,0.9714,0.9774,0.9784,0.9798,0.9802,0.9804,0.9809,0.9841,0.9848,0.978,0.978,0.978,0,0,0.9269,0.9303,0.9328,0.939,0.942,0.9461,0.9454,0.9499,0.9529,0.9542,0.9596,0.962,0.9664,0.9721,0.9748,0.9743,0.983,0.9808,0.981,0.9814,0.9845,0.9852,0.9857,0.9783,0.9782,0.9782,0,0,0.9313,0.9344,0.9387,0.9417,0.9462,0.9483,0.9493,0.954,0.9557,0.9612,0.9621,0.9658,0.9731,0.9761,0.9786,0.984,0.9845,0.9852,0.9871,0.9902,0.9908,0.9913,0.9931,0.9938,0.9857,0.9857,0.9857,0,0.9323,0.9386,0.9408,0.9452,0.9479,0.9491,0.9535,0.9563,0.9619,0.9637,0.963,0.972,0.975,0.9814,0.9827,0.9848,0.986,0.9847,0.9905,0.991,0.9915,0.9933,0.994,0.9858,0.9858,0.9858,0.9858,0,0.9396,0.9439,0.9469,0.9522,0.9552,0.9596,0.9624,0.9652,0.9663,0.9685,0.974,0.9777,0.9825,0.9841,0.9853,0.9907,0.9902,0.99,0.9887,0.9922,0.9939,0.9946,0.9859,0.9858,0.9858,0.9858,0,0,0.9441,0.9505,0.9515,0.9539,0.9589,0.9623,0.9666,0.9713,0.9736,0.9774,0.9811,0.9871,0.9869,0.9897,0.9912,0.9939,0.9979,0.9934,0.9935,0.994,1.004,1.0041,1.0048,0.9982,0.9984,0.9985,1.0036,0,0.949,0.9568,0.9589,0.9655,0.9695,0.9706,0.9744,0.9779,0.98,0.9837,0.9861,0.9903,0.9897,0.9914,0.9941,0.9968,0.9999,0.9965,1.0017,1.0018,1.0005,1.0058,1.0059,1.0106,1.0043,1.0044,1.0045,0,0.9559,0.9597,0.9667,0.9711,0.9728,0.9762,0.9806,0.9841,0.988,0.9894,0.9924,0.9936,0.9982,0.9966,1.0029,1.0005,1.0027,1.0043,1.0046,1.0051,1.0033,1.0064,1.0121,1.0128,1.0056,1.0055,1.0054,0,0.9583,0.9653,0.9704,0.9724,0.9776,0.9799,0.9822,0.986,0.9886,0.9925,0.9942,0.9985,1.0009,1.0042,1.0065,1.0052,1.0125,1.0112,1.0138,1.0137,1.0153,1.0151,1.0213,1.0168,1.0168,1.0167,1.0167,0,0.9636,0.9678,0.9715,0.9746,0.9793,0.9817,0.9863,0.9886,0.9919,0.9955,0.9967,1.0,1.0029,1.0066,1.0084,1.0133,1.0143,1.0155,1.016,1.0154,1.0152,1.0169,1.0166,1.0169,1.0169,1.0168,1.0168,0,0.9672,0.9698,0.9754,0.9799,0.9811,0.9844,0.9882,0.9912,0.9934,0.9978,0.999,1.0024,1.0068,1.0094,1.015,1.0162,1.0215,1.0219,1.0202,1.0204,1.0228,1.0225,1.0302,1.0313,1.026,1.0261,1.0261,0,0.9704,0.9736,0.9784,0.9809,0.9832,0.9871,0.9898,0.9922,0.9949,0.9995,1.002,1.0064,1.0101,1.017,1.02,1.0242,1.0247,1.0271,1.0253,1.0246,1.0246,1.0244,1.0247,1.0274,1.0274,1.0274,1.0275,0,0.9757,0.9769,0.9807,0.9849,0.9881,0.9915,0.995,0.9969,0.9999,1.0029,1.0073,1.0102,1.0158,1.0201,1.0246,1.027,1.0277,1.028,1.0288,1.0282,1.0271,1.0277,1.021,1.0278,1.0278,1.0278,1.0277,1.0277,0.9792,0.9821,0.9859,0.99,0.9929,0.996,0.9991,1.0016,1.0053,1.0101,1.0112,1.0159,1.0196,1.0257,1.0281,1.0318,1.0314,1.0326,1.0329,1.0331,1.0331,1.0265,1.0326,1.0326,1.0326,1.0326,1.0326,0,0.9845,0.987,0.9908,0.9956,0.9988,0.9992,1.003,1.0057,1.0098,1.0132,1.0167,1.0218,1.026,1.0293,1.0336,1.0359,1.0364,1.037,1.0368,1.0373,1.0333,1.0321,1.0365,1.0365,1.0365,1.0365,1.0365,1.0365,0.9877,0.9926,0.9941,1.0004,1.0029,1.0074,1.0095,1.0124,1.0152,1.0208,1.0243,1.0263,1.0297,1.0342,1.0381,1.0389,1.0405,1.041,1.0419,1.038,1.0376,1.0372,1.0361,1.0413,1.0413,1.0456,1.0457,1.0457]},{"header":{"parameterUnit":"m.s-1","parameterCategory":1,"la1":30.2991,"la2":30.254,"lo1":-89.0895,"lo2":-89.0444,"dy":0.0017,"dx":0.0017,"nx":28,"ny":28,"refTime":"2023-07-18T09:00:00:Z","depth":0,"parameterNumber":3,"parameterNumberName":"V-component_of_WINDS"},"data":[0,0,0,0,0,0,0,0,0,0,0,0,0,0,0,0,0,0,0,0,0,0,0,0,0,0,0,0,0,0,0,0,0,0,0,0,0,0,0,0,0,0,0,0,0,0,0,0,0,0,0,0,0,0,0,0,0,0,5.4789,5.4789,0,5.483,5.4831,5.4831,5.4755,5.4753,5.475,5.4748,5.4784,5.4787,5.479,0,0,0,0,0,0,0,0,0,0,0,0,0,5.4638,5.4641,5.4789,5.4789,5.479,5.483,5.4831,5.4831,5.4756,5.4752,5.4749,5.4747,5.4783,5.4787,5.4791,0,0,0,0,0,0,0,0,0,0,0,0,0,5.4694,5.4642,5.4789,5.4757,5.4755,5.483,5.4831,5.4831,5.4756,5.4752,5.4749,5.4745,5.4782,5.4786,5.4791,5.4897,0,0,5.4806,5.4809,0,0,0,0,0,0,0,0,5.4691,5.4699,5.4761,5.4759,5.4757,5.4784,5.4791,5.4853,5.4757,5.4755,5.4748,5.4743,5.4787,5.4791,5.4807,5.4899,5.49,5.4807,5.481,5.4812,5.4813,0,0,0,0,0,0,0,5.4687,5.4697,5.4805,5.4762,5.476,5.4739,5.4743,5.4802,5.4791,5.4755,5.475,5.4756,5.4784,5.4802,5.4807,5.4901,5.4807,5.4811,5.4814,5.4816,5.5082,5.5085,0,0,0,0,0,0,5.4688,5.4695,5.4804,5.4806,5.4714,5.4745,5.4749,5.4779,5.4791,5.4789,5.4759,5.4752,5.4795,5.4801,5.4808,5.4932,5.4812,5.4817,5.4819,5.5078,5.5083,5.5087,0,0,0,0,0,0,5.4685,5.4698,5.4802,5.4749,5.4761,5.4751,5.4786,5.4782,5.4799,5.4794,5.4791,5.478,5.4793,5.4801,5.4876,5.4933,5.4819,5.4823,5.5073,5.5079,5.5085,5.5183,0,0,0,0,0,0,5.4681,5.4698,5.474,5.4751,5.4764,5.4871,5.4789,5.4785,5.4809,5.48,5.4812,5.481,5.479,5.4869,5.4881,5.4937,5.4827,5.5068,5.5076,5.5083,5.5174,5.5191,5.5206,0,0,0,0,0,5.4676,5.4764,5.4742,5.4756,5.4816,5.4875,5.4882,5.4859,5.4814,5.4854,5.4851,5.481,5.4925,5.4877,5.489,5.4949,5.5064,5.5073,5.5082,5.5167,5.5188,5.5206,0,0,0,0,0,0,5.4757,5.4765,5.474,5.4835,5.4855,5.4862,5.4913,5.4882,5.4913,5.4904,5.4872,5.4875,5.4956,5.496,5.4907,5.5052,5.4986,5.4999,5.5047,5.5066,5.5082,5.5079,5.4831,0,0,0,0,0,5.4787,5.4837,5.4839,5.4922,5.4934,5.4922,5.4947,5.4928,5.4946,5.4953,5.4955,5.4973,5.5013,5.504,5.5076,5.5175,5.5175,5.5221,5.5237,5.525,5.5261,5.5313,5.5333,5.5117,5.5117,5.5117,0,0,5.4847,5.4858,5.489,5.4939,5.4952,5.5002,5.4929,5.4985,5.5021,5.4961,5.5032,5.5035,5.5052,5.514,5.5178,5.5145,5.5321,5.5262,5.5272,5.5276,5.5324,5.5345,5.5363,5.5123,5.5122,5.5121,0,0,5.4983,5.4997,5.5067,5.5083,5.5104,5.5096,5.5113,5.5125,5.5124,5.5196,5.5152,5.5193,5.5263,5.5278,5.5294,5.5436,5.5399,5.5449,5.5531,5.5582,5.5599,5.5614,5.5664,5.5682,5.546,5.546,5.546,0,5.5055,5.5131,5.5107,5.5167,5.5189,5.5139,5.5209,5.5224,5.5256,5.5272,5.5235,5.5322,5.533,5.542,5.5455,5.547,5.5487,5.5447,5.5599,5.5614,5.5627,5.5674,5.5693,5.5466,5.5465,5.5464,5.5464,0,5.5217,5.527,5.5325,5.5359,5.5387,5.5452,5.5436,5.5468,5.5446,5.5441,5.5514,5.5523,5.556,5.558,5.5558,5.5667,5.5645,5.5605,5.5538,5.5654,5.5698,5.5716,5.5474,5.5472,5.547,5.5469,0,0,5.5405,5.5427,5.5447,5.5462,5.5483,5.5522,5.5584,5.5622,5.5649,5.5673,5.5723,5.5783,5.5746,5.5765,5.5744,5.5789,5.5901,5.5742,5.5742,5.5771,5.6019,5.605,5.6071,5.5877,5.588,5.5883,5.6018,0,5.5539,5.5648,5.5629,5.5734,5.5782,5.5736,5.5789,5.5807,5.5804,5.5842,5.5837,5.5881,5.5829,5.584,5.5882,5.5878,5.595,5.5868,5.5921,5.5924,5.5918,5.6094,5.6126,5.6253,5.6035,5.6038,5.604,0,5.5711,5.5743,5.5854,5.5868,5.5887,5.5936,5.5969,5.6008,5.6026,5.602,5.6042,5.6014,5.6073,5.6007,5.6088,5.6033,5.6053,5.6055,5.6059,5.6062,5.5988,5.6102,5.6293,5.6312,5.6067,5.6064,5.6063,0,5.5836,5.5907,5.5982,5.5997,5.6014,5.605,5.6058,5.6073,5.6098,5.6126,5.6142,5.6177,5.6195,5.6222,5.6203,5.6157,5.6287,5.6219,5.6283,5.6283,5.6311,5.631,5.6509,5.6326,5.6326,5.6326,5.6325,0,5.5988,5.6057,5.6039,5.6085,5.6161,5.6138,5.6212,5.6215,5.6229,5.6273,5.6235,5.6277,5.625,5.6289,5.6274,5.6343,5.6352,5.6348,5.6343,5.6351,5.6352,5.6364,5.6354,5.6331,5.633,5.6329,5.6328,0,5.614,5.6131,5.621,5.6221,5.6225,5.6281,5.6289,5.6331,5.6325,5.6382,5.6394,5.6385,5.6429,5.6413,5.646,5.645,5.6538,5.6522,5.6533,5.6528,5.6593,5.6587,5.6805,5.6832,5.6634,5.6635,5.6637,0,5.6237,5.629,5.6307,5.6335,5.6348,5.6393,5.6419,5.6397,5.6425,5.645,5.6489,5.6531,5.6563,5.6636,5.6632,5.6668,5.6651,5.6726,5.6656,5.6663,5.6652,5.6649,5.6653,5.6739,5.6741,5.6743,5.6745,0,5.6411,5.6404,5.6443,5.6482,5.6514,5.6542,5.6567,5.6591,5.6571,5.6604,5.665,5.6675,5.6724,5.6766,5.6798,5.6804,5.6771,5.6767,5.6783,5.6792,5.6796,5.6794,5.657,5.6762,5.676,5.6759,5.6758,5.6757,5.6538,5.6582,5.6602,5.6647,5.6664,5.6688,5.6728,5.6729,5.6768,5.6807,5.6792,5.6845,5.6861,5.6901,5.6912,5.6952,5.6923,5.6947,5.6953,5.6959,5.6968,5.6791,5.6958,5.6957,5.6957,5.6957,5.6956,0,5.6708,5.6719,5.6761,5.6798,5.6833,5.6802,5.6827,5.6858,5.6906,5.6925,5.6958,5.7011,5.7051,5.7051,5.7088,5.712,5.7106,5.713,5.7127,5.7129,5.6992,5.6974,5.7141,5.7141,5.7141,5.7141,5.7141,5.7141,5.6802,5.6875,5.6871,5.6952,5.6961,5.7015,5.7032,5.7054,5.7069,5.7131,5.7165,5.7165,5.7176,5.7214,5.7249,5.7247,5.7262,5.7293,5.7286,5.7157,5.7139,5.7121,5.7104,5.7296,5.7296,5.7419,5.7421,5.7421]}]]